Stockholm Bromma, Sweden

10:34 PM CET on November 17, 2018 (GMT +0100)
Bromma

Weather History for ESSB - July, 2013

Change the Weather History Date:

Sunday, July 28, 2013

  Actual Average Record
Temperature  
Mean Temperature 70 °F -  
Max Temperature 79 °F 69 °F 84 °F (2006)
Min Temperature 60 °F 54 °F 46 °F (2000)
Cooling Degree Days 4    
Growing Degree Days 20 (Base 50)    
Moisture  
Dew Point 60 °F    
Average Humidity 74    
Maximum Humidity 100    
Minimum Humidity 31    
Precipitation  
Precipitation 0.00 in - - ()
Sea Level Pressure  
Sea Level Pressure 29.93 in    
Wind  
Wind Speed 6 mph ()    
Max Wind Speed 15 mph    
Max Gust Speed -    
Visibility 7.7 miles    
Events Rain    
Averages and records for this station are not official NWS values.
T = Trace of Precipitation, MM = Missing Value Source: Averaged Metar Reports

Daily Weather History Graph

Daily Weather History Graph

Search for Another Location

Airport or City:

Astronomy

Jul. 28, 2013 Rise Set
Actual Time 4:24 AM CEST 9:23 PM CEST
Civil Twilight 3:23 AM CEST 10:23 PM CEST
Nautical Twilight 1:27 AM CEST 12:22 AM CEST
Astronomical Twilight Sun does not rise Sun does not rise
Moon 10:36 PM CEST (7/28) 12:42 PM CEST (7/28)
Length of Visible Light 19h 00m
Length of Day
16h 59m
Waning Gibbous, 63% of the Moon is Illuminated
Jul 28
Waning Gibbous
Jul 29
Last Quarter
Aug 6
New
Aug 14
First Quarter
Aug 21
Full

Hourly Weather History & Observations

Time (CEST) Temp. Heat Index Dew Point Humidity Pressure Visibility Wind Dir Wind Speed Gust Speed Precip Events Conditions
12:00 AM 63 °F - 59 °F 81% 29.91 in 19 mi ESE 4.5 mph - -  
12:20 AM 62.6 °F - 59.0 °F 88% 29.89 in 6.2 mi SE 4.6 mph - N/A   Unknown
12:50 AM 60.8 °F - 59.0 °F 94% 29.89 in 6.2 mi SE 3.5 mph - N/A   Unknown
1:00 AM 61 °F - 59 °F 91% 29.91 in 14 mi SE 2.2 mph - -  
1:20 AM 60.8 °F - 59.0 °F 94% 29.89 in 6.2 mi SSE 3.5 mph - N/A   Unknown
1:50 AM 60.8 °F - 60.8 °F 100% 29.89 in 6.2 mi SE 3.5 mph - N/A   Unknown
2:00 AM 61 °F - 60 °F 94% 29.91 in 6 mi ESE 2.2 mph - -  
2:20 AM 60.8 °F - 59.0 °F 94% 29.89 in 5.0 mi SE 4.6 mph - N/A   Mist
2:50 AM 62.6 °F - 60.8 °F 94% 29.89 in 4.3 mi SE 3.5 mph - N/A   Mist
3:00 AM 62 °F - 62 °F 98% 29.91 in 4 mi SE 2.2 mph - -   Mist
3:20 AM 62.6 °F - 60.8 °F 94% 29.89 in 3.7 mi ESE 2.3 mph - N/A   Mist
3:50 AM 62.6 °F - 60.8 °F 94% 29.89 in 3.1 mi SE 4.6 mph - N/A   Mist
4:00 AM 62 °F - 62 °F 99% 29.92 in 2 mi SSE 4.5 mph - -   Mist
4:20 AM 62.6 °F - 62.6 °F 100% 29.92 in 1.1 mi SE 4.6 mph - N/A   Mist
4:50 AM 62.6 °F - 62.6 °F 100% 29.92 in - East 4.6 mph - N/A   Mist
5:00 AM 63 °F - 63 °F 100% 29.93 in 2 mi SE 4.5 mph - -   Mist
5:20 AM 62.6 °F - 62.6 °F 100% 29.92 in 1.2 mi SE 6.9 mph - N/A   Mist
5:50 AM 64.4 °F - 64.4 °F 100% 29.92 in 2.2 mi SE 3.5 mph - N/A   Mist
6:00 AM 64 °F - 64 °F 99% 29.93 in 3 mi ESE 6.7 mph - -   Mist
6:20 AM 64.4 °F - 64.4 °F 100% 29.92 in 3.1 mi SSE 5.8 mph - N/A   Overcast
6:50 AM 64.4 °F - 64.4 °F 100% 29.92 in 3.1 mi SE 5.8 mph - N/A   Overcast
7:00 AM 65 °F - 64 °F 95% 29.94 in 4 mi SE 6.7 mph - -   Mist
7:20 AM 66.2 °F - 64.4 °F 94% 29.92 in 5.0 mi SE 5.8 mph - N/A   Overcast
7:50 AM 66.2 °F - 64.4 °F 94% 29.92 in 6.2 mi SE 6.9 mph - N/A   Overcast
8:00 AM 67 °F - 64 °F 86% 29.94 in 7 mi SE 4.5 mph - -   Mostly Cloudy
8:20 AM 68.0 °F - 64.4 °F 88% 29.92 in 6.2 mi SSE 5.8 mph - N/A   Scattered Clouds
8:50 AM 71.6 °F - 64.4 °F 78% 29.95 in 6.2 mi SE 6.9 mph - N/A   Partly Cloudy
9:00 AM 73 °F - 64 °F 67% 29.94 in 13 mi SSE 6.7 mph - -  
9:20 AM 73.4 °F - 64.4 °F 73% 29.92 in 6.2 mi SE 6.9 mph - N/A   Unknown
9:50 AM 75.2 °F - 62.6 °F 65% 29.95 in 6.2 mi SE 9.2 mph - N/A   Unknown
10:00 AM 76 °F - 62 °F 52% 29.95 in 22 mi SE 8.9 mph - -  
10:20 AM 77.0 °F - 62.6 °F 61% 29.95 in 6.2 mi SSE 8.1 mph - N/A   Unknown
10:50 AM 77.0 °F - 62.6 °F 61% 29.95 in - ESE 9.2 mph - N/A   Clear
11:00 AM 78 °F - 60 °F 43% 29.94 in 17 mi SE 11.2 mph - -  
11:20 AM 78.8 °F - 59.0 °F 51% 29.92 in - SE 9.2 mph - N/A   Clear
11:50 AM 78.8 °F - 59.0 °F 51% 29.92 in - SE 10.4 mph - N/A   Clear
12:00 PM 79 °F - 58 °F 38% 29.94 in 18 mi SSE 8.9 mph - -  
12:20 PM 78.8 °F - 59.0 °F 51% 29.92 in 6.2 mi ESE 13.8 mph - N/A   Partly Cloudy
12:50 PM 78.8 °F - 57.2 °F 47% 29.92 in - SSE 12.7 mph - N/A   Clear
1:00 PM 79 °F - 57 °F 37% 29.94 in 19 mi SE 11.2 mph - -  
1:20 PM 80.6 °F 81.1 °F 59.0 °F 48% 29.95 in 6.2 mi SE 10.4 mph - N/A   Partly Cloudy
1:50 PM 78.8 °F - 57.2 °F 47% 29.95 in - SSE 11.5 mph - N/A   Clear
2:00 PM 79 °F - 54 °F 31% 29.95 in 18 mi SE 13.4 mph - -  
2:20 PM 78.8 °F - 59.0 °F 51% 29.95 in 6.2 mi SE 12.7 mph - N/A   Unknown
2:50 PM 77.0 °F - 57.2 °F 50% 29.95 in - SE 11.5 mph - N/A   Clear
3:00 PM 78 °F - 58 °F 41% 29.94 in 19 mi SE 11.2 mph - -  
3:20 PM 77.0 °F - 55.4 °F 47% 29.92 in - SE 13.8 mph - N/A   Clear
3:50 PM 78.8 °F - 57.2 °F 47% 29.92 in - ESE 13.8 mph - N/A   Clear
4:00 PM 78 °F - 56 °F 37% 29.94 in 28 mi SE 13.4 mph - -   Scattered Clouds
4:20 PM 77.0 °F - 57.2 °F 50% 29.92 in - ESE 15.0 mph - N/A   Clear
4:50 PM 75.2 °F - 57.2 °F 53% 29.95 in - SSE 11.5 mph - N/A   Clear
5:00 PM 74 °F - 59 °F 50% 29.95 in 25 mi SE 11.2 mph - -  
5:20 PM 73.4 °F - 59.0 °F 61% 29.95 in - SSE 11.5 mph - N/A   Clear
5:50 PM 71.6 °F - 60.8 °F 69% 29.95 in - ESE 10.4 mph - N/A   Clear
6:00 PM 71 °F - 61 °F 63% 29.95 in 18 mi ESE 11.2 mph - -   Scattered Clouds
6:20 PM 71.6 °F - 60.8 °F 69% 29.95 in - East 9.2 mph - N/A   Clear
6:50 PM 69.8 °F - 59.0 °F 68% 29.95 in - ESE 9.2 mph - N/A   Clear
7:00 PM 69 °F - 60 °F 64% 29.95 in 19 mi SE 8.9 mph - -  
7:20 PM 69.8 °F - 59.0 °F 68% 29.95 in - ESE 9.2 mph - N/A   Clear
7:50 PM 68.0 °F - 59.0 °F 73% 29.95 in - ESE 9.2 mph - N/A   Clear
8:00 PM 68 °F - 60 °F 67% 29.95 in 22 mi ESE 8.9 mph - -  
8:20 PM 68.0 °F - 59.0 °F 73% 29.95 in - SE 8.1 mph - N/A   Clear
8:50 PM 68.0 °F - 59.0 °F 73% 29.95 in - ESE 9.2 mph - N/A   Clear
9:00 PM 67 °F - 60 °F 70% 29.95 in 22 mi ESE 8.9 mph - -   Scattered Clouds
9:20 PM 66.2 °F - 59.0 °F 78% 29.95 in - ESE 9.2 mph - N/A   Clear
9:50 PM 64.4 °F - 60.8 °F 88% 29.95 in 6.2 mi SE 9.2 mph - N/A Rain Rain
10:00 PM 64 °F - 61 °F 86% 29.96 in 9 mi SE 6.7 mph - - Rain Rain
10:20 PM 64.4 °F - 60.8 °F 88% 29.95 in 6.2 mi SE 8.1 mph - N/A Rain Light Rain
10:50 PM 64.4 °F - 60.8 °F 88% 29.95 in 6.2 mi ESE 9.2 mph - N/A   Drizzle
11:00 PM 64 °F - 61 °F 87% 29.96 in 9 mi ESE 8.9 mph - - Rain Light Rain
11:20 PM 64.4 °F - 60.8 °F 88% 29.95 in 6.2 mi ESE 9.2 mph - N/A   Light Drizzle
11:50 PM 64.4 °F - 62.6 °F 94% 29.95 in 5.0 mi ESE 6.9 mph - N/A Rain Rain